Location: Melbourne
(37.8666°S, 145.1333°E)
Time: 09:33:59
(UTC+11:00)

Iridium 21 - Visible Passes

Search period start: 10 February 2016 00:00
Search period end: 20 February 2016 00:00
Orbit: 776 x 779 km, 86.4° (Epoch: 09 February)

Date Brightness Start Highest point End Pass type
(mag) Time Alt. Az. Time Alt. Az. Time Alt. Az.
11 Feb 8.7 21:48:57 10° SW 21:50:58 12° WSW 21:53:00 10° W visible
12 Feb 8.2 21:13:42 10° SSW 21:17:48 23° W 21:21:52 10° NW visible
13 Feb 7.0 20:39:31 10° SSW 20:44:30 43° W 20:49:25 10° NNW visible
15 Feb 8.6 21:14:35 10° SW 21:17:42 16° W 21:20:47 10° WNW visible
16 Feb 7.9 20:39:57 10° SSW 20:44:28 29° W 20:48:57 10° NW visible
18 Feb 9.2 21:16:36 10° WSW 21:17:33 10° WSW 21:18:30 10° W visible
19 Feb 8.5 20:40:36 10° SW 20:44:24 20° W 20:48:10 10° NW visible
